Terug naar catalogus

CZ-8A R/B

ActiefLEO
NORAD 66924·ROCKET BODY·🇨🇳 China

Gelanceerd Dec 6, 2025 vanaf Wenchang Space Launch Site

Loading…

Volgende Passages (komende 24 uur)

TLE

VersSource: Space-Track

Epoch: Sep 14, 2026, 09:03 UTC

1 66924U 25285K   26257.37775807 -.00000061  00000-0  37067-4 0  9990
2 66924  50.0094  22.7443 0118849 358.1044   1.9407 14.30609939 40385

Volg CZ-8A R/B in realtime met AllMySat

Download on the App Store